Location: ?????
(37.7324°N, 23.9257°E)
Time: 07:22:41
(UTC+00:00)

Cosmos 2263 Rocket - Pass Details

Date: 29 November 2020
Orbit: 823 x 849 km, 71.0° (Epoch: 17 January)

Event Time Altitude Azimuth Distance (km) Brightness Sun altitude
Exits shadow 03:02:00 21° 358° (N) 1,796 3.8 -26.6°
Drops below altitude 10° 03:04:02 10° 9° (N) 2,476 4.6 -26.2°
Sets 03:06:38 0° 16° (NNE) 3,417 5.5 -25.7°
